Flag for South Africa Weather past 2 weeks in Bloemfontein, South Africa

Now
52 °F

Sunny.


Feels Like: 47 °F
Forecast: 32 / 65 °F
Wind: 16 mph from Northeast

Location: Bloemfontein Airport

Current Time: Jul 29, 2014 at 11:19:53 AM

Latest Report: Jul 29, 2014 at 10:00 AM


Visibility: 10 mi

Pressure: 30.60 "Hg

Humidity: 50%

Dew point: 34 °F

Location of BloemfonteinLocation

Historic Weather in Bloemfontein — Graph

°F

Bloemfontein temperature yesterday

Maximum temperature yesterday: 66 °F (at 3:00 PM)
Minimum temperature yesterday: 27 °F (at 6:00 AM)
Average temperature yesterday: 46 °F

Past Weeks' High & Low Weather Summary

 TemperatureHumidityPressure
High75 °F (Jul 24, 3:00 PM)86% (Jul 16, 6:00 AM)30.63 "Hg (Jul 16, 6:00 AM)
Low21 °F (Jul 15, 7:00 AM)8% (Jul 14, 5:00 PM)29.98 "Hg (Jul 25, 3:00 PM)
Average45 °F47%30.31 "Hg
* Reported Jul 14 10:00 AM — Jul 29 10:00 AM, Bloemfontein, Weather by CustomWeather, © 2014

Note: Actual official high and low records may vary slightly from our data, if they occured in-between our weather recording intervals... More about our weather records

Advertising

Bloemfontein weather history for previous 24 hours

 ConditionsComfort  
Time TempWeatherWind HumidityBarometerVisibility
10:00 AM
Jul 29
52 °FSunny.16 mph50%30.60 "Hg10 mi
9:48 AM52 °FSunny.17 mph50%30.60 "Hg10 mi
9:00 AM46 °FPassing clouds.7 mph62%30.63 "HgN/A
8:00 AM39 °FPassing clouds.3 mph75%30.60 "HgN/A
7:00 AM37 °FSunny.3 mph75%30.60 "Hg10 mi
6:00 AM41 °FSunny.9 mph66%30.57 "Hg10 mi
5:00 AM39 °FClear.2 mph70%30.57 "Hg10 mi
4:00 AM45 °FQuite cool.12 mph61%30.54 "HgN/A
3:00 AM45 °FQuite cool.12 mph61%30.54 "HgN/A
2:00 AM45 °FQuite cool.9 mph61%30.54 "HgN/A
1:00 AM43 °FQuite cool.7 mph61%30.54 "HgN/A
12:00 AM46 °FCool.9 mph53%30.54 "HgN/A
11:00 PM
Jul 28
45 °FQuite cool.7 mph53%30.51 "HgN/A
10:00 PM45 °FQuite cool.6 mph49%30.51 "HgN/A
9:00 PM45 °FQuite cool.1 mph49%30.48 "HgN/A
8:00 PM50 °FClear.6 mph37%30.48 "Hg10 mi
7:00 PM52 °FClear.6 mph32%30.45 "Hg10 mi
6:00 PM61 °FClear.3 mph23%30.45 "Hg10 mi
5:00 PM64 °FClear.3 mph16%30.45 "Hg10 mi
4:00 PM64 °FPassing clouds.6 mph21%30.42 "HgN/A
3:00 PM66 °FPassing clouds.6 mph21%30.42 "HgN/A
2:00 PM64 °FPassing clouds.5 mph22%30.45 "HgN/A
1:00 PM63 °FSunny.3 mph25%30.45 "Hg10 mi
12:00 PM59 °FSunny.2 mph27%30.48 "Hg10 mi
11:00 AM55 °FSunny.3 mph31%30.54 "Hg10 mi
Weather by CustomWeather, © 2014

See weather overviewHow to use our weather pages